STARLINK-1761 (47626 NORAD) Tracking and Keplerian Element Data
This shows tracking and keplerian element data for the satellite.
Feedback or suggestion? Click here.
Element | Value |
Catalog | 47626 |
Name | STARLINK-1761 |
Epoch Orbit | 177 |
Epoch Day | 59.91667824 |
Epoch Year | 2021 |
RAAN | 38.6902 |
Inclination | 53.0506 |
Eccentricity | 0.0001228 |
Argument of Perigee | 69.929 |
Mean Anonmoly | 137.263 |
Mean Motion | 15.72687194 |
Decay Rate | -0.01057167 |
L1 | 1 47626U 21012G 21059.91667824 -.01057167 00000-0 -85588-2 0 9996 |
L2 | 2 47626 53.0506 38.6902 0001228 69.9290 137.2630 15.72687194 1779 |
Live tracking and technical data element details for STARLINK-1761 (NORAD 47626). STARLINK-1761 can be tracked NOW for your location showing map with azimuth and elevation plus other details from your city location.
Track the satellite on the map from your city or location and see movement details for azimuth, elevation, latitude, longitude, range, height, and movement on the map or in text.
IsCatalogInMostPopularTable: catalog: 47626, numindb: 4
Update: records affected: 1
GetName: 47626 STARLINK-1761
Hit Count: updated at: Mon, 01 Mar 2021 15:40:07 GMT